Wind_Speed
20 20 20 20 22 24 26 28 30 31 33 34 35 35 35 35 35 34 34 33 31 28 27 25 22 19 18 19 20 23 20 13 16 21 14 7 9 10 11 13 14 15 15 13 14 11 8 12 13 15 8 4 4 2 2 2 2 4 3 1 3 2 4 5 6 6 3 7 8 6 1 3 10 6 3 3 2 6 7 8 6 5 10 13 16 14 10 8
20 20 20 21 23 25 27 29 30 32 33 34 35 35 35 35 34 34 33 32 30 28 26 24 23 19 19 21 21 22 15 8 15 18 12 9 10 10 12 12 14 15 15 13 14 11 7 6 7 9 7 3 3 2 2 2 3 3 3 0 3 5 5 6 7 6 3 7 10 9 3 3 8 5 2 5 9 6 8 12 6 7 14 14 16 17 14 9
19 19 20 21 23 26 27 29 30 32 33 34 35 35 35 35 34 34 32 31 29 27 24 21 22 19 21 25 23 22 11 5 10 9 10 13 10 11 12 12 14 15 15 12 10 9 6 1 2 4 4 3 2 3 3 3 1 1 3 1 6 6 5 6 7 7 6 6 9 11 4 3 8 3 0 4 11 10 10 13 8 8 13 12 10 11 12 9
19 18 20 22 24 26 27 29 31 32 34 35 35 35 35 34 33 33 32 31 28 27 23 19 18 17 22 26 24 19 8 7 5 6 12 12 10 10 11 12 14 15 14 11 8 7 7 4 3 5 4 3 3 3 3 3 1 1 3 4 7 3 4 7 8 8 7 4 5 9 6 8 8 2 2 4 8 12 12 11 9 11 12 11 9 6 6 7
18 18 20 22 24 26 27 29 31 33 34 35 35 35 35 33 32 32 31 30 29 28 24 19 17 17 24 24 19 15 4 6 4 10 12 9 9 11 11 13 14 14 13 10 6 6 7 6 6 6 5 2 4 4 1 3 2 1 5 7 7 3 5 9 6 6 5 3 4 8 9 9 5 2 6 6 7 11 13 11 7 9 11 9 8 5 3 5
17 18 19 21 23 26 28 29 31 33 34 34 35 34 34 32 31 31 31 30 29 29 25 22 19 21 26 17 11 10 5 3 6 10 10 8 10 12 13 14 13 14 11 9 7 6 7 7 6 4 3 2 2 1 2 4 2 2 5 5 6 6 7 8 3 4 2 1 6 7 6 5 7 10 8 9 14 15 17 14 7 8 10 7 7 5 5 7
16 17 19 21 23 26 27 29 31 32 33 33 33 33 33 30 30 31 31 30 30 28 27 24 21 24 23 10 8 10 8 2 6 10 10 10 12 12 14 13 12 14 10 11 10 5 5 7 6 3 3 3 1 2 3 4 0 3 5 7 7 5 9 9 6 7 4 5 10 7 5 7 12 10 5 10 14 15 18 14 11 11 9 7 7 9 9 9
15 17 19 21 23 25 27 29 31 31 32 32 32 31 31 28 28 30 30 30 29 26 27 24 23 25 18 6 5 6 5 2 9 11 11 11 12 12 13 11 12 13 10 11 8 3 4 5 2 2 2 1 2 2 2 2 1 5 6 7 6 5 9 9 8 9 7 8 8 4 5 12 14 5 8 15 13 15 16 12 11 10 9 7 8 11 10 8
15 16 19 21 23 25 27 29 30 31 32 32 31 30 30 27 26 29 29 29 27 25 27 25 24 20 10 5 5 5 2 5 10 11 10 12 12 11 13 12 13 12 9 9 7 4 4 2 2 2 1 2 2 2 1 1 3 6 6 6 6 11 14 10 10 10 8 4 5 5 7 13 11 3 9 14 12 13 11 11 11 7 8 9 8 10 9 8
14 17 19 21 23 25 26 28 29 31 32 31 30 28 30 26 25 29 28 28 26 24 28 26 20 11 4 4 6 5 2 6 9 8 11 15 13 11 13 14 13 11 7 6 7 6 4 4 4 2 2 1 1 3 3 2 2 5 4 7 8 13 14 9 10 10 8 4 7 7 8 13 6 1 6 8 7 9 8 11 10 6 8 10 8 9 7 7
14 17 18 21 23 24 26 27 29 30 31 31 30 28 29 26 25 27 27 28 23 23 28 21 11 5 5 6 7 4 2 5 7 7 12 14 13 12 13 14 12 10 7 5 6 6 4 5 4 3 1 1 1 2 3 4 1 3 2 8 10 10 11 9 8 7 7 3 5 6 9 9 3 2 8 9 9 9 8 11 11 9 10 10 10 10 7 7
15 17 19 21 23 24 26 26 28 29 30 31 29 28 29 27 24 24 27 27 21 24 25 12 4 3 5 7 5 2 1 6 6 7 13 14 12 13 12 12 10 9 6 4 4 4 4 2 4 2 1 0 1 1 2 3 1 1 1 4 9 9 9 10 5 3 6 6 5 5 6 3 1 6 11 11 9 9 9 10 10 11 10 10 10 9 7 7
15 17 19 21 23 25 25 26 27 28 29 29 28 28 28 27 23 23 26 24 21 24 17 5 2 3 4 4 1 2 3 7 7 8 13 13 12 11 9 10 10 9 5 3 3 4 3 2 4 2 1 2 2 3 1 1 2 2 2 0 5 8 7 7 5 5 7 7 8 9 8 8 7 10 9 7 6 6 10 11 9 10 9 9 9 9 9 8
15 17 20 22 23 24 25 26 26 27 28 28 28 28 28 25 22 23 23 20 22 21 7 4 3 2 3 1 3 1 2 5 9 13 15 13 13 8 6 9 9 8 6 4 4 4 2 1 3 2 1 1 2 5 4 4 4 2 1 1 3 5 6 8 8 7 7 5 7 10 7 11 14 15 6 2 3 4 12 15 10 9 8 8 8 8 10 8
16 18 21 22 23 24 24 25 25 27 28 28 27 27 26 23 22 24 18 17 23 15 1 3 4 1 4 1 2 1 4 5 10 17 16 13 12 7 8 11 8 6 5 4 4 4 2 2 4 3 1 2 3 4 5 4 4 2 3 4 3 3 8 11 8 1 3 6 7 8 7 10 14 19 11 2 3 5 13 18 14 10 9 8 8 7 9 9
17 19 21 22 23 23 24 24 25 27 27 27 26 26 24 20 23 22 12 18 22 7 1 4 3 2 4 1 2 2 4 5 11 16 13 12 10 7 11 10 5 6 4 4 4 3 3 4 3 1 0 3 5 4 4 4 4 3 4 4 5 5 8 11 6 2 3 3 6 4 6 11 14 19 19 12 8 7 11 19 19 15 12 9 8 6 8 9
19 20 20 21 22 23 24 24 25 26 26 25 25 26 22 18 22 16 8 18 15 1 3 4 3 3 3 2 3 3 4 7 14 14 10 11 9 7 10 5 4 7 4 4 3 2 3 3 1 1 2 4 3 3 5 5 5 4 3 2 5 5 6 8 9 3 3 2 5 5 8 14 16 18 22 20 14 11 13 18 20 16 13 11 8 7 8 9
19 20 20 21 22 23 23 24 24 24 25 24 24 24 18 18 18 9 8 17 7 3 2 5 6 3 0 4 4 6 10 14 15 11 8 10 8 7 7 3 3 6 5 4 3 4 4 3 2 2 4 4 4 6 5 4 4 5 5 4 5 5 5 6 7 7 7 4 3 7 13 17 20 19 18 20 17 14 16 18 17 14 13 10 8 7 9 8
19 20 21 20 22 22 23 23 22 22 23 24 24 19 13 15 12 5 11 16 6 0 2 3 4 1 3 5 6 12 15 12 9 6 7 10 8 6 3 3 3 5 6 4 5 6 3 4 5 3 5 6 5 3 1 6 5 6 6 4 6 7 9 9 8 7 7 9 7 6 13 18 22 22 19 20 19 17 19 19 15 11 10 9 8 8 9 10
19 20 21 21 21 22 22 22 19 19 22 24 23 15 8 10 7 4 12 11 3 1 2 2 1 1 3 4 7 15 13 4 3 4 8 13 9 3 2 4 6 7 6 2 5 4 4 5 4 3 4 7 7 2 3 4 3 4 5 5 6 6 11 11 9 8 3 5 8 6 13 22 24 23 20 20 21 19 19 20 16 11 9 8 9 11 11 11
19 21 21 21 21 21 21 19 17 16 17 20 19 10 3 2 3 3 8 6 2 1 2 2 2 3 5 5 8 10 5 3 3 3 10 15 7 2 3 6 7 6 4 1 4 3 5 5 5 6 7 9 6 2 4 1 1 3 4 6 7 4 10 12 10 10 3 2 8 8 13 24 26 25 21 18 20 20 16 17 16 13 10 9 11 11 10 8
19 20 20 21 21 21 19 15 14 14 13 16 17 11 4 3 1 3 3 4 5 2 3 3 0 3 6 5 5 3 2 4 4 2 12 15 7 4 4 5 6 4 5 3 3 6 6 4 8 8 6 5 4 4 6 2 1 3 4 5 7 4 7 10 9 9 3 1 6 10 11 22 28 26 21 18 16 16 13 13 10 9 10 9 10 9 9 9
19 20 20 21 20 20 17 10 11 14 13 16 16 9 2 0 2 3 1 2 6 4 3 2 0 3 5 2 2 2 3 4 2 5 13 12 6 4 3 4 4 4 3 5 4 5 5 6 7 4 2 2 5 4 4 2 1 2 4 4 7 6 5 7 9 12 11 6 4 5 8 15 24 22 17 16 14 10 11 12 7 10 9 7 7 8 10 12
19 19 20 21 20 18 13 6 8 12 12 16 15 9 3 3 4 3 2 1 3 5 2 1 1 2 2 1 3 3 2 1 1 6 11 8 3 2 3 2 3 3 2 2 1 4 7 9 3 3 4 1 3 6 4 3 3 3 6 5 7 8 7 8 9 11 15 14 4 2 6 9 16 21 16 13 13 10 10 13 9 9 7 6 8 9 10 11
19 19 20 21 19 17 10 3 7 10 8 10 10 9 7 5 4 3 2 1 2 5 3 2 0 1 2 2 5 2 2 1 1 4 6 5 2 2 2 1 1 3 4 1 2 6 8 7 1 3 3 2 1 6 3 0 4 4 4 7 8 9 9 10 11 8 10 15 4 7 6 10 14 23 18 12 15 14 12 11 8 8 7 7 8 8 9 10
19 19 20 20 18 16 7 2 7 9 5 6 6 10 10 8 4 3 1 3 2 4 2 0 0 2 3 4 5 1 3 1 2 1 4 5 2 2 2 2 1 2 3 0 3 4 4 4 2 2 5 3 3 5 3 3 1 5 3 4 5 6 8 10 10 6 5 13 10 6 5 11 13 21 17 12 15 15 11 7 8 7 6 6 6 7 8 10
18 19 19 18 17 14 5 1 6 6 2 4 8 12 13 10 3 3 1 5 2 2 1 0 0 3 3 5 5 3 1 5 1 3 5 5 3 2 2 3 2 3 1 2 3 2 2 6 6 4 3 2 3 4 3 3 3 4 4 2 5 7 9 9 7 5 5 12 15 5 4 8 12 16 10 7 12 13 8 8 10 10 9 8 8 7 9 10
18 19 18 17 15 11 5 2 3 4 2 4 9 12 12 8 2 3 3 3 2 0 2 1 0 2 4 5 6 4 2 5 2 2 6 8 5 3 2 2 2 6 3 3 3 4 1 4 4 4 4 2 3 4 2 4 3 6 6 6 8 7 8 8 5 6 6 8 12 7 3 6 11 11 6 5 10 10 7 9 11 11 12 11 10 11 11 12
19 18 17 15 12 8 6 4 2 5 1 5 8 12 10 4 3 5 5 1 2 1 1 1 1 2 5 6 7 4 2 4 1 5 5 9 7 4 1 2 2 6 5 4 5 6 3 4 4 3 4 3 4 4 2 5 2 7 8 8 7 5 6 6 4 5 5 6 12 11 5 5 11 12 5 4 8 6 6 7 7 9 12 11 10 12 13 13
19 17 16 13 8 5 6 4 3 3 3 6 9 10 7 3 4 5 3 3 1 0 1 1 0 2 6 6 5 5 3 3 3 5 4 3 6 6 2 1 3 1 5 2 2 6 5 4 1 0 3 4 2 2 3 6 3 5 6 7 8 8 6 4 3 1 1 6 12 10 3 3 12 11 3 4 8 6 5 7 9 13 15 12 11 12 13 14
18 16 15 11 6 5 4 2 2 2 5 7 8 7 5 3 4 3 4 4 0 2 0 2 2 3 7 5 3 4 4 4 5 5 5 4 6 8 5 4 5 3 4 4 3 5 7 6 1 2 1 2 3 4 3 5 6 7 5 5 6 6 4 4 3 1 1 9 12 7 5 8 14 10 6 8 8 8 7 9 12 14 13 10 10 10 11 12
16 14 12 9 7 5 3 0 3 6 6 5 5 4 4 4 2 3 5 3 2 2 1 1 1 2 4 3 1 3 3 3 3 4 3 3 4 4 4 2 2 4 3 2 3 4 4 5 3 1 0 5 6 5 4 4 7 6 4 4 4 4 5 5 5 2 4 10 14 11 10 10 15 10 7 6 6 8 9 11 14 15 11 9 9 9 9 11
13 11 9 8 6 5 3 2 4 5 4 2 3 4 6 3 3 5 3 3 2 1 1 2 2 3 3 1 1 2 1 1 3 3 1 2 4 2 2 2 1 1 2 3 3 4 4 4 3 2 2 5 7 5 4 4 6 5 2 2 3 3 4 6 7 7 7 10 18 16 10 9 11 4 3 3 5 8 12 15 18 17 13 10 8 7 7 8
10 8 7 7 5 3 3 4 5 5 3 2 4 4 3 2 5 4 3 5 4 2 2 2 3 3 2 0 2 1 1 1 2 3 2 3 4 2 3 5 5 1 2 3 2 2 3 4 2 2 1 4 6 5 2 3 8 6 0 2 2 3 1 4 6 9 10 11 18 15 6 8 8 2 5 6 9 13 17 21 23 21 16 16 15 14 14 12
7 5 6 6 4 3 3 4 5 4 3 4 5 2 2 5 4 2 4 5 2 2 1 1 2 1 2 2 2 2 1 1 1 3 3 3 2 1 1 3 5 3 1 2 3 1 1 5 4 2 3 7 5 1 3 3 7 3 1 3 2 3 3 4 8 11 11 11 13 8 5 9 10 8 7 11 16 21 26 28 27 22 19 20 20 19 19 17
5 4 5 6 4 3 3 4 3 2 3 5 4 2 5 5 4 3 4 2 1 1 1 3 1 1 3 2 2 3 1 0 2 2 2 1 1 1 2 1 3 3 3 1 2 2 1 4 3 4 4 8 4 4 3 2 3 2 3 2 3 4 5 3 7 11 8 8 8 6 9 13 11 9 8 16 24 26 26 26 21 16 18 20 18 16 15 14
5 4 4 5 3 3 3 3 1 2 4 6 3 5 4 4 4 4 3 1 2 3 4 2 1 2 1 1 1 3 2 1 1 2 1 1 1 2 3 1 2 3 2 1 0 2 1 7 5 2 1 2 1 6 4 2 3 3 4 5 5 3 3 2 4 5 4 7 7 7 14 18 12 6 7 18 24 23 21 19 16 17 21 21 19 17 16 13
5 3 4 3 2 3 3 2 2 4 5 3 3 5 3 4 2 2 3 2 2 3 4 2 3 2 2 2 2 3 1 1 1 1 0 1 0 3 4 1 1 4 4 1 1 2 1 7 5 5 4 2 4 5 4 2 5 5 3 6 5 4 3 3 6 6 6 9 8 8 15 18 10 6 12 19 21 19 18 18 19 23 24 20 19 19 18 14
4 1 3 2 3 3 3 3 3 5 4 3 4 4 2 3 3 1 3 3 3 2 2 4 3 1 2 3 3 3 1 1 1 1 1 1 0 2 4 1 2 5 6 3 2 1 1 3 5 2 6 4 5 4 2 6 4 5 2 3 3 2 2 4 4 4 5 8 10 7 11 14 6 8 16 18 17 18 19 21 21 22 22 20 19 18 16 13
3 0 2 3 4 5 5 4 3 4 1 4 4 3 1 2 3 2 3 2 2 2 2 3 2 2 2 3 3 1 1 2 3 2 1 1 1 2 2 1 2 4 5 5 3 1 2 1 7 6 5 6 3 1 1 4 3 3 3 3 3 2 2 5 4 3 2 5 7 6 10 13 5 7 13 16 17 20 22 22 19 19 21 21 19 17 15 12
2 0 3 3 5 7 7 4 1 2 2 2 2 3 1 1 2 1 1 1 1 1 1 3 3 3 3 2 2 2 2 2 2 2 2 1 1 1 1 2 0 1 3 4 3 0 1 1 5 10 9 5 3 4 3 0 2 2 2 3 3 2 3 5 6 4 1 4 6 6 12 14 4 3 10 13 17 20 20 20 18 19 21 21 20 19 16 13
2 2 2 4 8 8 6 1 1 2 2 3 2 2 1 1 1 1 1 1 1 0 1 2 2 2 3 2 2 3 3 2 3 2 2 1 1 1 2 2 2 1 2 2 2 1 2 2 2 8 7 5 9 8 1 5 5 4 3 1 1 2 2 3 6 7 6 7 7 6 13 13 2 2 9 13 16 18 18 20 19 17 18 20 21 19 16 14
2 3 1 5 9 7 3 2 2 1 3 2 1 1 1 0 1 1 1 0 0 1 1 0 2 2 2 1 2 3 3 2 3 3 1 1 1 1 3 3 2 1 3 1 2 0 1 2 1 6 7 4 5 2 5 6 5 5 1 1 1 4 5 5 7 7 6 7 8 7 12 12 4 4 11 14 15 17 18 20 20 18 16 17 19 19 17 16
2 2 1 3 7 5 2 4 3 3 5 2 1 2 1 1 1 1 2 2 1 2 1 1 1 1 1 2 2 3 3 1 1 2 2 3 3 3 3 3 2 1 1 2 1 0 1 0 2 4 8 6 4 3 0 1 3 3 3 5 6 10 10 7 6 5 4 8 12 10 10 12 10 9 13 15 17 19 19 19 19 18 15 14 15 17 19 18
2 1 1 1 3 2 2 3 2 3 3 1 1 2 1 1 2 2 2 2 1 2 2 1 1 2 2 2 3 0 2 0 1 1 2 2 3 3 3 4 3 3 2 4 2 2 1 1 2 1 5 6 6 6 6 6 6 4 6 11 14 15 13 9 6 5 6 10 13 10 10 16 15 13 17 19 19 21 21 19 18 17 16 15 15 16 18 18
2 1 1 1 1 1 1 1 1 2 3 2 1 2 4 3 2 1 2 3 2 3 2 1 2 3 2 3 2 1 2 1 1 2 2 2 2 3 4 5 3 4 4 2 2 3 2 1 2 5 7 6 7 9 9 8 7 7 9 14 17 16 13 8 5 6 9 11 12 11 14 20 19 18 21 22 21 21 19 18 18 17 18 18 18 17 17 17
2 2 3 3 0 2 1 1 2 2 2 4 2 2 5 4 1 0 2 2 2 3 2 1 2 2 3 5 3 2 2 1 1 3 2 2 1 1 3 3 2 4 4 3 3 3 3 1 4 9 11 9 8 11 13 10 8 7 10 15 19 17 14 10 8 11 12 10 12 14 17 20 20 20 23 22 20 19 16 16 17 18 20 20 19 20 20 19
3 1 2 3 1 3 3 3 6 5 3 4 2 2 4 4 4 3 2 1 1 1 2 2 2 3 5 5 4 3 2 1 1 2 2 1 1 1 3 1 1 1 2 2 1 3 3 3 6 8 10 9 7 10 12 10 8 7 11 17 18 17 15 13 13 15 11 9 16 19 20 20 19 20 22 22 21 20 17 17 18 18 21 21 21 23 23 21
2 0 0 1 1 3 3 3 7 8 7 5 3 3 5 6 6 4 1 2 1 2 3 4 4 4 4 5 5 4 3 3 2 2 3 1 1 1 1 1 1 1 3 2 1 2 3 2 4 5 8 8 7 9 10 9 8 8 12 18 17 16 16 14 14 15 12 14 22 21 20 20 18 17 20 21 22 22 18 17 19 20 21 22 23 24 24 23
3 2 2 2 1 2 2 3 6 6 6 6 5 5 5 7 8 3 1 4 4 3 3 5 6 5 4 4 5 4 4 5 3 3 5 3 0 1 1 1 1 0 2 1 1 0 1 1 2 2 5 8 7 7 9 8 7 9 15 19 17 15 14 12 12 12 11 17 23 21 17 17 14 15 19 20 23 25 21 19 21 20 20 23 24 25 26 26
4 5 8 5 2 4 3 2 5 4 4 6 7 5 5 7 9 5 2 3 4 4 5 6 6 5 3 2 4 4 3 5 5 6 7 5 3 3 2 2 4 2 1 2 1 1 1 1 1 2 3 7 7 7 11 11 7 11 15 14 11 10 10 11 13 11 11 18 23 18 13 13 13 16 19 21 26 30 25 20 19 19 21 25 26 26 28 28
7 5 8 5 1 5 5 2 4 5 5 6 8 6 5 6 7 7 4 1 1 3 5 7 8 5 3 4 6 6 5 6 6 6 5 5 4 4 3 3 5 4 2 2 1 0 2 2 0 1 0 7 11 9 10 11 8 8 7 3 4 10 13 15 15 12 13 17 16 12 11 14 17 19 21 21 26 31 27 18 17 21 24 27 28 29 29 28
Wind_Direction
21 19 16 15 13 12 11 9 8 8 8 7 7 5 4 2 359 358 358 357 359 2 7 12 13 5 355 357 359 355 3 41 58 51 54 19 357 358 353 353 352 352 354 353 2 17 18 8 2 6 23 70 16 354 15 9 81 54 79 68 293 205 198 194 192 202 241 295 292 302 2 270 296 301 291 324 255 254 282 270 247 257 253 239 249 264 275 281
17 15 13 12 10 10 9 8 7 7 7 6 6 4 3 2 358 357 356 355 358 1 6 13 16 12 2 358 359 358 3 53 54 44 36 6 1 2 357 356 351 349 356 2 12 31 43 359 338 8 35 53 343 340 12 11 66 78 117 91 252 204 214 198 197 206 219 285 298 302 309 269 274 285 341 301 281 284 294 281 256 252 263 258 257 258 259 253
14 12 10 9 8 7 7 6 6 5 6 5 4 3 2 1 357 356 355 354 357 359 4 12 14 15 5 355 353 355 358 54 46 24 4 2 2 1 358 355 350 352 0 9 20 37 62 39 342 36 45 49 3 339 9 16 25 145 131 273 241 214 247 228 216 227 227 271 301 296 319 306 269 259 77 279 291 295 276 273 263 253 265 269 267 255 248 233
10 10 8 7 6 5 5 5 4 4 4 4 3 2 2 0 357 355 354 353 355 356 359 4 5 6 357 347 347 347 360 63 37 318 336 352 357 356 356 353 353 355 1 11 27 45 64 75 54 51 51 35 344 354 14 336 359 132 149 212 231 204 290 249 220 237 237 225 268 286 323 307 284 248 227 264 301 298 277 262 238 244 260 265 277 272 232 214
7 6 6 5 4 3 4 3 3 3 3 2 2 1 1 359 356 354 353 352 352 351 351 352 348 348 345 344 348 343 16 71 332 318 337 346 354 354 355 354 352 354 1 13 30 50 46 43 53 49 45 31 344 20 342 279 84 160 218 218 232 203 278 263 218 224 221 185 262 290 302 292 302 290 247 237 259 270 272 271 223 233 260 264 279 279 210 209
3 4 4 2 1 1 2 2 1 2 1 1 1 0 360 358 354 352 353 351 348 347 345 343 337 336 340 349 13 9 73 107 307 336 349 350 354 355 355 350 351 354 358 16 28 41 33 28 48 54 36 30 349 22 270 281 83 265 265 253 252 207 236 269 249 244 202 190 276 277 289 301 300 285 262 231 240 252 264 279 280 265 268 270 283 271 232 230
1 2 1 359 359 359 359 360 360 1 0 1 1 360 359 357 352 350 350 349 346 346 344 341 336 334 340 12 60 43 81 135 310 342 348 350 350 350 351 345 350 354 2 24 29 47 54 39 42 103 82 29 278 230 255 296 55 212 266 282 277 215 226 258 273 276 256 232 254 268 312 300 272 279 295 246 245 261 270 285 294 284 284 285 278 266 255 244
360 0 359 356 356 356 357 358 358 359 358 359 359 359 358 355 350 347 347 345 343 346 346 342 337 335 343 41 84 47 60 321 329 342 343 348 345 343 348 348 353 360 23 36 38 93 85 54 36 132 76 341 203 217 246 320 296 203 235 275 294 280 260 271 282 278 269 238 236 247 270 268 259 269 297 274 270 273 275 290 291 291 301 289 266 265 267 257
359 358 356 354 353 353 354 356 357 357 356 356 357 357 357 353 348 345 343 341 340 345 346 342 338 338 353 55 82 72 22 317 336 344 350 352 346 346 352 358 357 4 36 51 54 85 93 103 245 204 216 246 193 236 226 1 281 212 228 276 293 294 292 304 302 290 298 265 173 169 237 262 265 280 280 267 263 270 283 294 288 308 304 282 267 264 263 260
357 356 353 351 351 352 352 354 355 354 354 354 353 355 355 352 347 342 339 339 338 342 344 342 341 349 33 50 70 76 315 318 345 359 4 356 350 350 354 356 354 3 32 63 67 75 100 182 219 148 170 217 189 221 183 150 225 203 241 295 286 290 295 305 303 301 316 282 161 158 240 265 272 155 267 263 256 274 298 289 289 317 294 280 277 269 261 254
355 353 350 348 349 350 351 352 352 352 352 351 351 352 352 350 345 339 336 336 335 339 342 343 350 30 74 64 82 88 304 336 356 8 3 353 350 347 348 350 349 1 18 63 78 82 97 193 187 91 109 208 202 228 210 191 181 202 260 306 295 304 302 299 307 312 336 312 172 179 228 262 325 176 244 266 279 288 293 284 294 299 282 280 276 274 270 252
353 349 346 347 348 349 348 348 349 349 350 349 349 349 350 348 343 337 334 332 332 338 340 347 15 103 94 62 80 116 28 13 3 1 353 346 347 341 342 346 348 356 4 63 78 85 76 205 155 108 250 168 309 317 213 197 25 273 115 298 302 344 320 302 312 325 355 333 309 303 259 259 253 227 248 265 275 294 300 285 286 281 273 277 273 275 273 259
347 346 345 346 347 347 345 345 346 346 347 348 347 348 348 346 341 335 332 328 331 338 339 9 35 180 109 51 77 155 62 25 7 355 349 343 344 338 339 347 346 347 354 45 58 75 60 236 152 155 231 96 287 293 193 105 22 295 82 250 310 355 308 294 316 335 353 320 341 1 313 299 275 250 258 269 276 309 304 283 270 271 270 273 274 278 276 266
343 344 345 346 345 344 342 343 343 342 344 346 346 346 345 343 336 331 331 325 332 338 338 50 23 189 92 58 215 179 346 3 5 358 352 346 347 345 349 350 338 330 342 21 52 67 41 226 120 80 28 102 270 303 318 5 16 296 40 41 359 347 284 303 313 335 359 305 11 23 299 295 300 291 290 243 266 294 296 292 278 270 271 273 276 277 280 271
339 343 346 345 342 341 340 340 340 340 343 346 346 345 342 340 330 328 331 327 333 337 302 30 1 145 76 58 230 322 317 345 3 356 353 350 354 353 345 349 340 330 346 25 57 64 53 111 90 62 298 335 30 6 322 336 2 17 23 332 346 325 291 310 297 306 4 297 11 20 293 295 300 299 310 313 284 291 296 299 296 288 284 283 285 281 284 281
338 343 344 341 339 340 338 337 339 339 342 346 345 342 341 338 327 326 328 331 335 338 158 358 351 88 83 50 295 345 345 356 351 348 350 353 1 347 336 347 349 339 354 41 66 79 64 77 77 74 329 15 46 34 351 3 349 5 33 318 310 316 313 321 301 168 114 308 349 8 280 294 298 302 310 312 310 308 299 298 302 304 304 306 307 298 295 297
337 341 341 338 337 337 336 337 339 339 341 345 345 343 343 339 327 321 328 339 338 149 95 15 6 49 80 13 342 338 339 328 328 336 347 353 2 348 340 357 334 329 8 63 72 76 34 37 27 341 37 42 53 44 22 10 331 327 12 316 286 289 294 313 308 303 82 53 322 308 274 279 288 297 305 309 315 317 302 298 302 309 317 322 319 308 302 301
335 338 338 336 335 337 336 336 339 340 340 344 346 341 340 342 332 313 335 349 345 173 76 18 22 59 73 351 338 302 308 310 320 337 357 354 352 343 349 25 331 333 17 45 39 32 6 8 49 15 10 11 20 49 32 319 288 295 312 308 296 287 258 264 281 297 333 332 275 294 291 290 294 296 302 305 311 313 300 298 302 311 324 325 320 310 306 323
334 335 335 332 334 338 337 337 340 341 340 346 350 343 341 350 342 306 346 7 39 55 309 331 14 102 268 316 300 308 313 308 325 356 11 357 338 325 350 34 22 25 33 11 358 17 14 5 30 22 349 329 325 30 276 252 241 269 286 278 291 304 284 267 258 271 319 320 303 299 295 298 301 302 307 307 308 308 301 301 305 318 331 324 324 327 339 1
332 331 330 331 336 340 339 337 339 342 344 349 355 358 4 4 3 325 340 4 70 12 309 250 277 230 293 304 305 329 334 335 16 30 14 357 332 311 11 18 27 41 50 7 313 349 61 22 346 274 279 282 287 260 213 234 235 280 298 281 282 292 290 292 288 286 350 330 305 320 305 300 300 299 304 306 305 304 304 307 313 334 344 337 351 1 13 17
329 327 328 330 336 343 340 335 338 347 349 357 13 33 70 57 42 322 321 325 282 34 5 253 200 236 274 277 309 339 360 10 9 39 12 354 335 338 345 16 32 10 359 270 281 333 48 19 283 245 238 255 275 141 145 157 296 290 295 296 304 281 277 290 292 294 354 354 303 337 318 301 297 297 300 302 300 300 305 309 318 346 358 7 22 17 19 14
325 325 327 330 337 344 339 333 339 344 350 13 41 69 121 135 121 278 288 301 299 354 355 308 302 286 278 267 302 341 88 17 348 348 360 355 5 29 348 34 47 328 325 11 351 354 6 307 259 248 236 258 302 104 126 141 169 273 284 303 306 289 284 293 293 300 335 86 311 334 319 297 293 294 296 294 290 294 302 308 330 20 27 28 31 16 13 8
322 323 326 328 335 343 340 336 336 339 2 37 59 73 90 125 275 271 259 284 292 317 354 343 28 301 305 299 309 360 59 34 330 322 352 3 21 44 61 51 11 317 351 32 16 350 321 275 257 260 286 293 317 18 79 82 93 224 260 296 292 298 312 298 307 319 314 290 271 291 288 285 288 290 293 289 285 294 304 312 355 58 58 41 31 14 10 2
320 322 325 326 333 343 342 333 338 348 21 52 63 58 35 301 285 247 233 263 291 303 293 251 222 243 283 306 336 6 72 70 286 323 353 19 25 34 94 77 353 337 346 51 8 282 271 271 279 40 30 74 283 316 3 7 332 238 227 247 269 293 293 277 306 328 316 302 271 184 272 276 284 288 291 292 298 309 308 315 354 56 58 35 28 12 3 356
319 321 325 324 330 344 341 316 352 360 20 50 52 32 17 339 302 220 223 358 311 301 292 245 246 244 260 307 331 334 124 90 234 283 341 35 51 17 49 102 65 331 294 270 270 271 269 270 353 39 343 38 297 300 311 284 319 303 241 229 245 280 289 288 311 340 327 305 330 74 315 287 285 288 293 304 304 303 305 322 11 48 31 22 22 4 354 353
317 319 323 322 329 344 342 277 349 355 16 48 27 355 359 358 326 205 154 32 307 289 327 194 160 355 326 331 329 2 97 338 229 200 23 48 72 82 32 329 35 315 269 261 287 268 281 298 31 4 287 318 339 298 255 175 4 316 257 210 230 270 288 290 306 331 322 291 306 34 305 285 287 285 292 302 295 296 309 352 35 36 19 19 9 352 353 356
316 318 320 321 329 344 355 255 336 357 45 22 354 339 345 356 346 191 48 19 322 257 39 285 269 30 350 316 333 48 27 303 300 64 36 26 358 68 25 328 1 306 253 60 329 262 295 324 1 359 303 337 328 301 258 153 97 273 255 341 319 306 291 285 293 290 273 284 296 303 229 267 281 280 293 295 285 299 324 19 28 11 8 7 357 0 6 8
314 316 317 322 330 343 5 323 338 60 74 334 334 330 338 358 72 130 60 9 308 101 88 280 220 32 340 332 5 54 312 322 21 331 11 43 31 41 9 284 232 281 264 127 279 272 267 306 313 312 314 312 278 276 249 110 94 266 290 333 311 292 275 279 287 274 283 294 293 290 242 266 274 282 333 331 296 314 353 22 17 2 358 355 356 9 15 17
314 315 312 319 326 337 355 351 57 91 26 318 326 326 339 23 98 78 63 283 292 60 90 340 112 333 344 3 12 25 350 3 37 298 358 55 41 33 358 249 208 283 278 157 232 264 245 239 245 281 293 250 248 263 170 103 38 293 315 328 302 289 278 277 274 273 307 295 280 287 278 259 276 290 346 346 309 339 18 10 7 357 351 351 1 13 17 16
314 312 307 313 319 321 335 354 78 95 301 310 324 332 354 52 81 47 355 251 289 323 229 28 166 315 12 26 345 350 29 355 316 326 350 39 13 18 27 346 74 325 303 3 258 266 283 281 237 61 265 208 201 300 141 121 22 335 347 339 322 321 315 301 287 270 335 278 274 280 272 292 292 294 1 344 324 19 39 358 360 355 351 356 7 15 15 11
313 308 303 307 306 304 323 13 47 332 309 318 330 346 8 22 71 77 263 248 261 288 316 39 339 13 44 48 321 334 16 336 327 5 7 357 5 10 12 18 35 24 348 358 325 302 316 323 1 131 234 97 73 18 86 114 44 20 3 343 332 324 322 316 328 43 252 275 280 294 352 327 290 290 347 333 342 37 31 3 357 349 352 1 6 14 12 6
309 301 298 299 291 291 304 325 324 327 331 336 345 24 56 8 12 185 249 301 335 289 132 115 324 51 65 58 311 298 332 329 352 39 30 13 34 29 27 49 357 348 356 320 319 340 316 289 293 194 68 33 39 12 1 43 46 23 327 346 358 332 323 314 325 328 257 270 281 303 344 309 275 290 336 339 30 39 4 354 349 346 359 7 6 17 11 360
302 294 288 286 284 289 291 284 312 343 357 1 15 51 76 29 284 215 233 303 270 291 77 103 37 76 97 45 293 279 314 291 340 30 80 57 62 48 0 40 30 312 268 280 318 349 325 296 339 339 336 36 56 47 355 339 2 351 310 44 17 349 331 311 310 301 279 276 286 302 328 292 274 301 41 44 34 6 348 349 345 346 355 358 358 8 359 351
294 285 272 267 270 281 287 295 325 6 39 83 63 47 42 291 258 224 225 248 250 346 45 92 42 38 77 355 272 273 101 237 328 11 22 39 40 7 330 346 6 12 239 305 315 334 329 305 320 338 347 47 53 74 134 302 333 332 137 93 68 80 15 296 294 292 293 292 293 303 308 280 293 7 62 26 353 347 350 347 343 346 350 349 348 346 344 343
279 263 251 252 252 262 287 304 334 17 72 84 66 69 232 255 260 241 232 241 275 0 15 80 82 34 319 325 311 290 193 216 354 15 15 43 55 49 22 330 339 355 354 338 312 294 292 264 266 338 54 81 67 84 183 313 331 310 86 63 90 134 184 258 270 268 279 287 287 298 270 267 303 324 353 5 351 350 350 342 340 344 348 346 341 340 341 338
246 228 235 250 251 250 285 305 329 33 90 81 73 195 213 235 235 205 213 217 117 141 346 344 90 156 286 308 331 321 338 58 25 20 349 29 64 113 101 315 326 7 51 60 322 2 340 273 288 342 30 98 101 322 309 300 308 309 4 3 244 217 184 227 274 263 270 285 282 302 283 281 305 311 344 5 352 347 341 331 330 334 338 337 330 332 333 328
208 204 227 250 262 248 265 296 334 88 86 94 159 223 219 224 207 175 187 172 121 120 78 346 243 166 241 247 267 302 344 8 24 33 297 318 48 121 120 353 356 31 45 128 241 84 270 286 271 202 160 152 258 346 21 88 76 40 332 304 280 273 175 183 289 271 271 278 276 304 295 294 304 301 1 4 344 332 325 320 324 330 332 329 324 325 322 317
183 206 247 241 239 245 249 254 147 97 81 109 216 246 215 205 203 137 153 148 116 93 100 201 231 160 180 213 238 254 295 328 330 19 301 249 230 116 109 90 345 4 351 14 50 83 4 306 291 147 122 305 315 35 48 1 62 83 311 319 343 359 357 332 315 310 314 294 285 308 299 294 302 323 348 346 327 318 321 324 328 327 326 323 319 319 314 310
173 242 283 205 180 209 187 170 129 86 79 172 220 253 222 226 266 195 175 145 113 115 152 215 235 138 173 181 192 225 242 223 200 107 112 150 230 90 88 77 328 348 348 44 77 324 46 306 283 121 87 358 343 53 6 309 25 84 46 358 15 32 338 308 284 288 310 288 284 310 296 286 314 349 332 325 316 318 323 323 323 320 317 317 315 312 306 303
175 42 270 189 175 186 152 125 95 87 139 199 201 227 244 266 273 238 202 172 145 170 194 211 206 179 203 196 192 195 118 177 166 152 201 157 93 77 71 35 11 351 350 42 68 358 54 239 269 300 1 4 358 119 273 319 355 37 35 24 10 11 301 284 267 242 236 269 290 316 282 275 326 354 318 313 316 318 318 316 315 314 314 313 310 307 300 294
161 270 248 172 158 161 133 110 104 140 191 224 208 229 272 300 279 300 312 148 172 228 169 163 177 183 185 186 205 176 124 176 176 158 219 207 88 86 121 130 161 325 6 33 40 30 97 173 271 295 320 345 308 258 247 232 159 155 74 31 347 338 326 310 296 287 294 285 296 302 280 283 325 337 304 313 313 311 311 309 309 311 312 311 308 305 298 290
146 221 219 129 151 156 128 128 244 138 195 238 224 217 256 331 304 302 334 66 156 237 80 126 174 183 175 160 189 178 138 176 201 190 224 226 72 111 147 173 213 162 95 19 307 212 141 109 276 285 292 288 287 292 182 150 143 124 98 79 261 290 323 295 286 300 309 292 287 275 276 286 311 279 299 308 304 304 307 306 308 309 308 309 308 304 298 291
176 199 120 119 155 157 126 222 239 212 230 237 254 217 183 298 289 253 274 350 160 155 65 193 188 176 194 157 139 170 159 160 185 180 155 110 90 161 175 199 221 107 84 17 297 295 102 79 354 292 292 275 281 328 124 141 98 74 17 290 270 286 287 263 269 290 293 291 295 275 271 284 303 305 302 303 302 305 307 306 308 308 307 308 308 306 303 297
168 159 36 144 171 163 172 213 202 223 234 225 276 243 176 189 198 186 220 234 203 150 135 218 196 165 176 102 100 176 192 151 144 153 130 136 160 175 185 217 215 119 118 208 228 39 255 29 43 330 313 319 334 2 169 273 34 59 303 314 305 291 295 289 281 288 283 287 291 285 280 288 298 305 302 302 306 305 303 305 307 306 306 306 307 306 304 301
129 122 17 165 183 168 210 221 170 189 212 199 267 238 181 210 198 165 190 199 171 144 141 190 158 104 92 78 53 322 218 234 155 153 99 120 166 188 238 260 219 173 225 240 202 103 184 216 100 56 296 305 308 300 294 312 338 349 331 323 307 301 308 309 304 306 294 287 286 282 282 287 294 307 303 303 308 305 304 308 306 304 304 304 305 303 300 300
139 204 160 76 322 222 248 314 117 156 170 152 277 227 180 198 237 166 171 180 160 124 114 175 143 98 104 123 96 244 247 325 62 132 131 149 180 209 240 251 232 221 235 220 125 101 100 196 180 203 232 246 260 272 284 301 310 316 320 308 297 297 304 306 307 294 285 288 285 276 282 292 302 311 306 305 307 304 304 310 307 305 306 305 303 298 294 294
176 203 167 142 269 214 244 282 181 186 175 168 195 198 177 191 233 226 182 175 151 113 93 126 144 151 182 158 144 200 214 23 72 133 145 164 171 273 256 234 243 246 210 150 106 97 96 238 224 223 237 245 254 271 281 290 293 300 304 292 287 292 300 300 289 280 284 292 289 287 292 298 302 306 304 304 304 300 302 307 304 302 303 302 299 295 291 288
198 198 162 146 152 181 202 210 190 195 203 186 189 168 172 187 187 197 212 125 114 138 144 181 198 204 197 166 153 172 154 120 228 172 131 138 132 344 316 281 259 267 126 96 33 94 115 238 226 228 250 249 241 259 272 281 288 291 282 276 280 289 293 290 280 279 285 283 282 293 300 297 297 301 301 301 301 299 299 301 298 297 297 296 294 293 291 289
158 104 269 78 149 177 166 154 170 193 204 193 201 197 188 195 194 202 179 122 194 255 185 205 224 201 190 165 145 163 175 173 235 210 154 153 165 156 337 327 265 44 79 70 330 116 115 245 218 228 268 265 241 249 260 268 277 280 274 275 282 286 283 281 278 280 285 278 279 291 299 295 295 298 298 300 299 295 297 298 294 292 293 292 292 292 291 289
156 173 160 84 61 154 102 120 153 189 202 189 210 212 189 196 199 196 137 161 200 232 183 210 211 168 169 166 146 187 200 158 158 185 160 142 163 179 189 212 195 60 69 132 281 213 157 246 214 215 287 285 269 260 266 269 266 269 273 275 280 282 280 282 286 293 297 286 287 298 303 294 295 297 297 301 298 295 297 299 296 294 293 292 291 291 291 291
140 131 142 134 164 159 142 148 149 170 204 196 206 198 179 203 198 183 214 203 189 197 186 190 182 145 133 166 174 217 213 140 153 181 164 160 186 189 188 183 167 159 213 203 226 299 207 247 335 37 328 287 289 300 297 295 288 273 270 267 269 281 291 292 293 300 298 291 296 307 305 295 300 302 300 300 298 296 298 300 301 301 298 296 294 291 290 288
136 116 134 127 159 173 165 157 158 188 212 195 194 187 181 202 186 170 207 227 133 225 205 165 154 138 138 189 210 218 191 163 180 187 171 175 192 200 212 208 183 170 183 184 144 198 197 190 284 66 18 284 291 306 308 312 316 284 258 235 284 297 300 297 294 294 292 293 302 308 299 296 302 303 301 301 300 300 303 311 315 310 306 301 295 290 288 290
Height
832 830 828 827 824 822 820 818 816 814 811 809 806 804 801 799 797 795 793 791 790 788 787 785 783 782 781 779 779 777 776 776 775 775 777 780 780 780 779 778 777 776 775 774 772 771 771 771 769 769 768 770 775 777 777 778 780 781 788 795 793 796 793 783 782 780 777 772 766 765 769 771 765 762 760 757 757 754 752 748 745 744 739 734 731 730 732 733
832 830 828 827 824 822 820 818 816 813 811 808 806 804 801 799 797 795 793 791 790 788 787 785 784 783 780 780 779 777 777 777 776 777 780 781 780 780 779 778 777 776 775 773 772 772 772 773 772 771 771 774 778 777 777 779 780 783 791 795 790 789 783 777 775 773 774 770 765 766 769 771 765 763 762 758 754 754 754 745 741 741 734 730 730 731 732 733
832 831 829 827 824 822 819 817 815 813 811 808 806 804 801 799 796 795 793 791 789 788 787 785 784 782 781 779 778 778 777 776 778 781 782 781 780 780 779 778 777 776 775 774 773 773 773 774 772 772 773 776 780 779 777 779 782 786 792 791 783 781 779 775 772 770 771 770 768 767 768 769 764 763 762 759 755 753 751 742 738 737 730 727 728 730 731 733
833 831 829 827 824 822 820 817 815 813 811 809 806 803 801 799 797 795 793 791 789 788 787 786 784 782 781 778 777 777 775 778 783 784 782 781 781 780 779 778 777 776 775 775 774 774 773 774 773 773 775 778 783 782 780 780 783 787 789 783 776 779 779 770 768 768 769 772 771 767 770 767 761 763 760 758 758 750 741 734 733 732 727 726 727 729 732 732
833 831 829 827 825 822 820 818 815 813 811 808 806 803 801 799 797 795 793 791 789 788 786 786 784 782 781 778 777 775 774 785 788 783 782 782 780 780 779 778 777 777 776 775 775 774 773 774 773 775 778 780 783 782 782 782 784 785 781 775 772 779 776 764 765 767 768 772 770 769 769 763 760 760 756 756 759 747 732 726 729 730 727 728 728 729 731 731
833 832 830 827 825 823 820 818 815 813 810 808 806 803 801 799 796 794 792 790 789 788 786 785 783 782 780 777 777 773 777 790 788 782 783 782 780 780 779 778 778 777 776 775 775 775 775 775 775 779 783 782 785 785 784 783 784 782 775 771 771 776 772 762 763 765 767 772 770 767 766 763 761 757 752 751 749 738 727 726 729 730 729 729 729 729 729 730
834 832 830 828 826 823 821 818 815 813 811 808 806 803 801 798 796 794 792 790 788 787 785 785 783 781 779 777 777 776 780 787 785 783 783 781 781 780 779 778 778 777 776 775 775 776 777 778 778 782 785 784 786 786 785 784 783 784 777 770 768 771 768 762 763 765 768 771 767 766 766 763 760 756 750 742 739 734 729 728 730 729 728 730 729 727 727 728
834 832 830 828 826 824 821 818 816 813 811 808 806 804 801 799 796 794 791 790 788 787 786 784 783 781 779 777 778 780 784 785 784 783 782 781 781 779 779 778 777 776 776 775 776 777 778 780 780 783 784 784 786 785 786 784 782 784 778 770 768 766 762 761 764 763 764 766 764 766 765 757 753 756 748 736 736 734 729 728 728 727 727 727 727 725 726 727
834 832 830 828 826 824 821 819 816 813 811 808 806 804 801 799 796 793 791 790 788 787 786 784 783 781 779 778 779 784 788 785 784 783 782 781 780 779 778 777 777 776 776 776 777 776 777 781 781 780 782 783 784 783 784 783 780 779 775 771 771 765 759 760 760 757 760 762 762 763 761 752 749 753 744 732 732 730 727 727 725 726 725 723 724 724 724 725
834 832 830 828 826 824 821 819 816 813 811 808 806 804 801 798 795 793 791 789 787 786 785 783 782 781 780 779 781 787 788 785 784 783 782 781 780 779 778 777 777 776 776 777 777 776 777 779 779 778 779 782 783 783 783 782 779 778 776 774 772 769 764 762 758 757 759 757 758 760 756 749 748 754 742 727 727 727 726 725 723 725 724 722 722 721 722 724
834 832 830 828 826 824 821 819 816 814 811 808 805 803 800 798 795 793 790 789 787 786 785 783 782 781 780 780 784 789 787 785 785 783 782 781 780 779 778 778 777 777 777 777 777 777 778 777 778 779 780 782 782 783 782 780 779 778 779 776 772 770 765 760 756 758 759 752 754 758 753 750 752 752 739 727 725 725 725 724 724 724 722 721 720 718 720 722
833 832 830 828 826 824 821 819 817 814 811 808 805 802 799 797 795 792 790 788 787 786 784 782 782 781 780 782 785 787 785 785 785 784 783 782 781 780 779 779 778 778 777 778 778 778 778 778 778 779 781 782 782 782 780 780 781 779 781 779 773 772 765 755 754 759 760 752 749 749 744 745 749 741 729 727 726 726 727 725 724 722 720 719 718 717 718 718
833 832 829 827 825 823 821 819 816 814 811 808 804 801 798 796 794 792 789 787 786 785 783 782 782 780 781 785 786 785 785 785 784 784 783 782 782 781 780 780 779 779 778 778 779 778 779 778 779 780 781 782 783 781 778 782 783 779 783 783 777 777 767 754 755 758 758 753 747 748 747 740 735 729 725 727 726 727 726 721 721 719 718 718 716 716 715 716
833 831 829 827 825 823 821 818 816 813 811 807 804 800 797 795 793 791 789 787 785 784 783 782 782 780 782 786 785 784 785 785 785 784 783 782 781 781 781 781 780 779 779 779 779 779 779 779 780 782 783 784 783 780 778 782 783 780 783 784 783 783 769 755 758 758 756 756 750 753 757 741 727 722 723 727 726 726 722 716 718 717 716 717 716 716 714 713
833 831 829 826 825 823 820 818 816 813 810 807 803 800 797 795 792 790 788 786 785 783 783 782 782 781 784 786 785 785 785 784 785 784 783 783 781 781 781 781 780 779 780 780 780 780 780 780 781 783 784 785 783 782 781 780 782 785 783 783 788 788 775 762 759 759 758 758 753 756 758 741 727 719 718 725 725 725 722 714 712 713 714 715 715 716 713 710
832 830 828 826 824 822 820 818 815 812 809 806 803 800 797 794 791 789 788 786 784 782 782 783 782 782 786 788 785 785 786 785 785 784 784 783 782 783 782 781 781 780 780 780 780 781 780 781 785 788 787 785 787 788 784 781 784 789 790 789 789 788 783 770 758 758 762 761 757 761 760 746 730 719 716 721 722 724 722 714 709 709 711 713 713 713 711 708
832 830 828 827 824 822 820 817 815 812 809 807 803 799 796 794 791 788 788 786 783 782 783 783 782 783 786 786 785 787 787 787 786 785 784 783 783 783 783 782 781 781 780 780 781 781 781 783 787 790 788 791 795 790 786 790 793 793 795 795 791 789 789 780 763 757 763 764 761 762 760 749 736 726 721 719 720 723 721 714 709 708 710 712 712 711 709 707
831 830 828 827 825 822 819 817 815 812 809 806 803 799 796 793 790 788 788 785 782 782 783 783 783 787 790 788 789 790 788 787 786 785 784 783 783 783 783 783 783 781 780 781 781 781 783 785 788 787 788 792 794 792 795 799 799 797 798 798 795 792 789 785 775 762 761 764 766 766 757 744 734 728 725 720 719 721 718 713 710 710 712 712 711 710 708 709
831 829 828 827 825 822 820 817 815 812 809 805 802 799 795 793 790 788 787 784 785 786 787 790 791 794 795 791 791 790 787 786 785 784 785 784 783 783 783 784 784 783 783 784 783 786 789 787 789 790 790 791 791 796 799 798 797 796 799 800 799 796 786 781 778 767 766 767 764 765 757 743 733 726 724 719 715 717 714 709 709 712 715 712 710 711 712 714
830 829 828 827 824 822 819 817 815 813 809 805 801 797 797 800 798 795 792 789 793 796 795 798 798 797 795 793 792 789 786 785 785 786 785 784 783 782 783 783 783 784 789 794 791 792 795 792 793 794 794 792 792 798 799 797 799 797 799 798 798 801 788 775 772 766 768 770 762 762 758 746 733 724 723 720 713 712 713 708 708 713 715 714 715 716 718 718
830 829 827 826 824 822 820 818 816 814 811 807 802 801 808 814 812 810 806 797 797 800 797 798 799 796 794 793 792 791 789 786 786 786 785 784 782 782 785 785 787 790 795 800 797 794 797 795 792 793 794 793 794 801 801 799 799 797 797 797 798 802 789 774 771 768 768 771 764 762 762 746 729 722 721 720 716 712 713 712 711 715 718 720 722 722 721 719
830 828 827 825 824 822 820 818 816 815 813 808 805 809 816 820 818 819 818 807 799 799 798 797 797 796 794 793 793 793 792 790 787 786 786 785 782 784 789 790 794 798 798 799 797 798 800 795 789 792 796 795 794 799 802 800 799 799 798 800 800 796 788 777 769 766 769 774 770 766 767 750 725 719 719 718 717 712 711 714 716 722 724 725 726 724 721 719
829 827 826 824 823 823 820 819 817 815 813 810 810 815 818 819 819 820 821 814 803 798 798 797 796 796 794 793 793 792 791 792 791 788 787 785 785 790 793 794 797 798 799 799 799 804 804 793 789 795 796 793 790 793 799 801 801 800 797 799 797 790 791 785 772 768 769 771 773 772 773 757 727 717 717 713 711 712 711 711 718 727 730 729 728 725 722 720
828 827 825 824 823 822 820 819 818 816 814 813 815 818 818 819 819 820 820 816 807 800 798 798 797 797 795 793 793 792 792 795 795 791 789 788 790 793 793 797 799 797 798 802 802 804 802 793 793 796 793 792 792 792 795 797 799 799 796 797 794 789 791 789 782 781 773 764 765 771 773 759 733 718 716 711 708 711 712 710 718 729 732 731 729 727 725 722
827 826 825 823 823 821 820 819 818 817 816 816 817 818 819 819 819 821 821 814 807 802 798 798 798 797 795 793 793 793 793 795 795 793 792 791 792 793 795 799 799 797 799 803 803 800 797 796 796 794 790 793 795 792 793 795 798 799 795 793 792 790 790 790 790 793 788 768 756 768 775 758 733 717 715 716 712 712 712 714 724 732 732 731 730 729 728 726
826 825 824 823 821 821 820 818 818 818 817 817 819 818 819 819 819 823 822 813 805 800 799 799 799 797 795 794 793 793 794 794 794 794 792 792 793 793 796 798 799 800 800 802 803 800 797 795 795 794 792 795 795 794 795 795 799 800 795 794 795 795 796 795 795 799 798 777 756 768 780 765 739 719 717 722 717 714 714 720 730 734 733 733 732 731 730 729
825 824 824 822 821 820 819 819 819 818 818 819 819 819 819 818 820 822 820 816 808 800 799 800 800 798 796 797 795 794 797 796 793 794 794 793 793 793 796 799 801 802 802 805 803 798 796 792 792 793 793 795 795 796 795 795 800 798 795 797 797 799 800 797 801 802 797 783 766 766 775 772 748 719 717 724 719 716 719 728 735 733 733 733 732 733 732 732
824 824 822 822 821 820 820 820 819 819 820 820 819 820 818 818 821 820 821 825 813 798 798 800 798 797 796 798 797 796 799 799 796 796 795 794 793 794 797 799 802 802 802 807 803 797 796 791 790 792 794 798 796 796 797 797 799 795 795 801 800 802 801 797 802 801 795 791 777 763 768 773 748 717 716 721 718 720 726 735 738 734 734 733 731 733 732 733
824 823 821 822 821 820 820 819 819 820 820 819 820 819 817 819 818 817 826 829 809 795 799 799 796 799 800 798 799 801 801 801 801 798 795 796 795 795 798 799 802 801 801 806 803 797 795 792 792 794 796 799 796 797 799 797 800 800 799 800 799 800 798 797 801 798 798 796 778 762 766 768 744 719 723 723 719 729 737 740 740 736 735 733 732 734 733 734
823 821 821 821 820 820 819 819 819 819 819 819 819 817 818 817 814 822 836 826 804 799 801 797 800 805 804 800 800 805 804 804 807 802 797 799 797 797 800 801 802 802 803 806 803 798 796 794 795 797 797 798 798 799 799 799 804 804 802 800 798 796 793 794 795 796 801 793 771 759 765 770 748 722 726 730 726 737 745 743 740 737 735 733 734 735 735 736
821 821 820 820 820 820 819 819 819 818 818 818 817 817 817 814 816 831 836 815 803 806 800 801 809 808 808 808 806 807 806 808 810 805 803 803 802 803 803 803 807 805 802 804 802 800 798 794 795 798 799 799 797 798 801 805 808 807 806 806 805 801 795 793 792 796 800 785 763 755 763 774 755 724 725 733 733 741 745 745 744 740 738 738 738 738 738 738
820 820 819 819 819 819 819 819 818 818 818 817 818 817 815 819 825 826 819 804 803 806 801 807 813 810 814 816 813 814 813 812 812 810 812 812 812 818 818 819 822 814 805 806 806 804 798 794 798 801 799 799 796 797 802 806 810 814 812 809 814 816 809 805 803 803 802 783 760 757 771 774 750 728 732 738 741 746 745 745 745 741 741 741 740 740 740 739
819 818 819 818 818 818 819 819 817 818 817 816 819 815 817 832 832 818 811 805 804 806 806 811 815 816 818 813 813 819 818 816 814 813 816 817 817 823 829 832 831 822 815 811 810 810 802 797 800 799 797 801 802 805 812 812 813 816 813 812 819 826 830 830 820 809 803 787 762 762 779 770 741 733 742 744 746 748 744 743 742 739 740 741 740 741 740 740
818 818 818 818 818 818 818 818 817 817 817 817 817 817 825 836 826 814 812 807 805 810 814 816 817 818 818 814 816 820 816 817 818 814 813 815 814 818 827 831 829 827 821 812 810 813 808 800 799 800 799 805 810 815 820 818 815 813 811 813 818 826 839 842 831 817 811 798 775 772 778 759 737 735 743 747 746 743 741 739 737 736 736 737 736 735 736 735
817 817 818 817 818 818 817 817 816 816 817 817 818 822 830 829 818 813 811 806 808 812 815 820 817 813 815 819 823 821 814 815 819 815 813 817 817 820 829 833 833 831 822 813 812 816 815 805 802 805 804 809 817 820 818 814 813 812 811 815 818 824 834 836 827 816 816 812 789 775 766 742 730 733 739 747 745 739 741 739 737 740 739 739 738 735 735 733
817 817 818 817 817 817 817 816 816 816 817 817 822 825 823 816 809 809 807 807 810 810 811 816 813 809 814 819 822 822 816 815 819 816 814 819 821 826 834 836 837 835 828 824 821 826 830 813 803 808 810 817 821 817 815 815 813 813 814 818 820 822 829 838 833 811 809 818 797 776 765 744 738 742 741 749 749 745 750 747 745 749 746 745 743 740 740 737
817 817 817 817 817 816 816 816 816 817 817 818 822 821 814 807 804 805 808 811 814 813 812 813 810 808 813 816 818 821 817 816 820 819 816 819 821 827 834 837 839 837 837 837 829 833 841 820 801 803 808 816 819 813 814 817 816 820 824 822 821 821 822 833 838 820 817 824 802 783 777 760 756 758 749 755 761 757 756 753 752 752 748 747 743 740 739 736
817 818 817 816 816 815 816 816 816 816 817 820 821 817 812 807 805 808 811 812 814 814 814 813 810 810 813 814 816 821 820 816 818 820 818 818 821 828 834 836 839 839 840 840 832 836 843 823 800 797 804 814 814 813 818 818 817 824 827 823 822 830 833 834 835 831 833 832 811 799 790 765 759 765 761 766 768 761 758 756 755 753 749 747 743 739 737 733
818 818 816 815 815 815 815 816 817 817 818 822 820 814 813 810 808 811 812 811 812 813 813 812 810 812 816 815 815 821 823 818 818 821 817 815 820 830 837 838 839 840 839 837 834 837 841 831 810 798 807 816 813 815 824 824 824 827 829 827 824 833 843 844 840 838 843 838 822 821 810 774 762 771 772 772 767 761 761 759 756 754 750 747 742 738 735 732
818 816 813 814 814 814 816 816 818 818 818 820 817 813 814 812 808 812 813 811 810 810 811 812 812 814 816 819 819 820 823 822 820 821 819 818 823 832 840 842 840 841 840 837 837 838 840 839 823 802 804 815 817 821 826 828 831 833 833 836 837 839 841 841 836 829 837 843 836 839 826 785 770 777 774 770 766 763 762 759 756 754 749 746 741 736 733 730
818 815 812 814 814 814 817 816 818 820 818 817 816 814 814 812 809 811 813 812 811 809 810 812 813 813 814 819 821 820 822 824 822 821 821 821 825 832 840 844 843 842 841 837 838 839 840 842 834 818 815 819 820 821 822 826 830 831 835 840 842 844 845 850 845 826 827 838 839 844 827 787 773 777 772 769 767 763 760 758 755 752 748 743 738 733 729 726
816 812 811 814 814 815 816 816 822 826 819 813 814 814 813 813 812 811 811 812 812 810 811 813 814 816 816 817 821 823 823 824 824 824 823 825 832 837 840 843 843 842 840 838 838 840 841 846 846 835 825 822 820 820 822 825 824 827 836 839 840 842 844 856 858 841 836 837 833 837 821 782 769 773 770 768 766 762 759 755 752 750 746 741 734 729 726 723
813 811 812 814 813 815 816 817 823 825 819 815 816 815 815 815 814 813 813 812 811 811 812 813 814 816 817 819 822 824 821 820 823 824 827 835 842 842 842 842 841 840 839 837 838 840 840 844 848 840 825 817 818 823 825 823 823 831 837 837 839 841 840 846 848 842 845 842 835 838 822 782 766 770 768 766 764 761 758 753 750 747 742 738 733 727 723 719
812 813 814 814 813 815 815 812 814 816 815 815 815 813 815 816 814 814 813 811 812 812 811 812 815 816 819 823 822 822 820 818 820 826 832 839 843 843 844 844 841 839 838 835 836 839 839 838 844 846 838 826 820 824 826 822 825 837 840 836 836 835 835 839 838 839 846 839 827 831 819 784 767 768 766 763 762 759 755 752 748 743 738 735 731 726 719 715
811 812 814 814 813 815 815 811 808 809 812 814 813 811 813 814 815 815 814 812 814 814 811 813 818 819 823 826 824 824 824 819 820 829 834 838 843 846 846 844 842 839 837 837 837 839 842 843 845 850 855 851 841 835 832 829 832 838 839 836 832 829 833 838 840 846 847 832 820 823 813 783 766 768 766 762 760 756 752 749 745 740 735 731 727 723 717 711
806 806 811 816 815 815 816 815 813 810 811 814 813 812 811 810 813 816 814 813 814 815 815 816 819 820 822 825 825 825 826 825 826 830 834 838 842 844 844 842 841 839 837 838 838 840 846 848 845 845 851 852 848 840 834 836 843 846 844 839 830 827 831 837 845 848 840 828 820 813 801 781 770 770 765 759 758 754 748 747 743 736 731 726 722 717 712 707
803 800 804 811 813 814 816 817 815 811 810 811 810 809 810 810 813 814 813 812 813 815 816 818 820 817 817 822 823 824 829 832 831 832 835 838 840 842 842 840 840 839 837 839 839 840 849 853 846 844 844 843 842 840 836 839 845 847 846 840 830 828 831 836 842 838 830 830 819 798 790 786 777 771 764 757 754 750 746 745 740 733 727 722 716 710 704 700
798 795 797 799 802 808 812 812 811 810 810 811 809 808 810 811 811 811 809 812 816 814 813 818 820 817 816 817 817 821 831 834 833 835 839 840 843 844 841 839 841 839 838 840 840 841 850 854 847 843 843 842 842 841 837 840 844 844 843 836 829 829 829 832 833 824 823 827 809 788 789 789 778 769 763 755 749 743 742 741 736 730 725 718 711 704 697 693
796 796 798 799 798 801 805 804 806 809 810 811 811 809 809 808 808 809 809 812 815 814 812 812 814 818 821 818 815 818 824 824 825 834 841 842 844 845 840 838 840 841 841 842 841 842 849 853 848 845 845 842 841 840 838 840 843 842 837 830 827 827 826 826 824 816 815 813 795 786 791 785 774 768 760 752 744 735 734 734 730 726 721 713 707 699 691 686
789 790 794 800 802 803 805 804 806 810 810 810 810 807 806 806 806 808 811 811 811 813 814 811 811 820 825 821 817 817 818 818 820 829 838 839 840 842 842 838 838 841 843 842 842 842 846 849 847 845 847 841 836 836 836 836 841 841 834 827 825 825 822 819 814 809 811 805 789 786 791 781 769 764 756 749 739 726 725 728 724 720 716 709 702 694 685 680
781 782 786 793 799 804 806 806 806 809 809 807 806 803 804 805 804 806 809 810 808 809 811 810 812 821 826 825 820 817 820 823 823 825 831 834 832 835 837 836 837 842 843 842 842 842 844 848 845 846 851 843 832 833 834 832 837 837 830 826 824 821 818 814 808 807 808 801 790 790 792 779 765 758 753 747 736 721 718 724 721 715 710 704 696 689 679 672
778 782 783 786 793 800 804 804 806 806 800 796 797 799 800 801 802 805 809 812 812 811 809 810 813 819 823 825 821 818 821 824 825 826 829 830 831 833 834 835 836 840 842 842 844 843 844 847 846 849 855 844 831 833 836 836 836 825 814 816 818 814 812 809 803 803 802 796 793 793 786 771 761 756 751 745 735 719 711 719 722 715 707 700 689 680 672 663